When you browse on this site, cookies collect data to enhance your experience and personalize the content and advertising you see.
Visit our Privacy Policy to learn more. By continuing to use the site, you agree to this use of cookies and data.
  • In Latvia
  • List of Countries
  • For 7 days
  • Water Temperature
  • Satellite Maps
  • Weather Map
  • Weather Widgets
  • user-avatar
    Login

    Hourly Weather Hobart

    Today, 18 February, Monday

    Time Temperature Precipitation Wind Pressure Humidity
    00:00 +16°C° 0 mm 2 mps 739 mmHg 82%
    01:00 +16°C° 0 mm 2 mps 739 mmHg 83%
    02:00 +16°C° 0 mm 2 mps 739 mmHg 82%
    03:00 +16°C° 0 mm 2 mps 738 mmHg 81%
    04:00 +17°C° 0 mm 2 mps 738 mmHg 80%
    05:00 +18°C° 0.1 mm 1 mps 738 mmHg 80%
    06:00 +18°C° 0.1 mm 1 mps 738 mmHg 80%
    07:00 +18°C° 0.1 mm 1 mps 738 mmHg 80%
    08:00 +18°C° 0.1 mm 2 mps 737 mmHg 70%
    09:00 +19°C° 0.1 mm 4 mps 737 mmHg 61%
    10:00 +21°C° 0 mm 4 mps 736 mmHg 46%
    11:00 +21°C° 0 mm 5 mps 736 mmHg 46%
    12:00 +20°C° 0 mm 6 mps 736 mmHg 46%
    13:00 +20°C° 0 mm 7 mps 736 mmHg 46%
    14:00 +17°C° 0 mm 7 mps 736 mmHg 48%
    15:00 +16°C° 0 mm 7 mps 736 mmHg 51%
    16:00 +16°C° 0 mm 5 mps 735 mmHg 51%
    17:00 +15°C° 0.1 mm 5 mps 736 mmHg 55%
    18:00 +14°C° 0.1 mm 5 mps 737 mmHg 60%
    19:00 +13°C° 0.1 mm 5 mps 737 mmHg 64%
    20:00 +12°C° 0 mm 5 mps 738 mmHg 67%
    21:00 +11°C° 0 mm 4 mps 738 mmHg 70%
    22:00 +10°C° 0 mm 4 mps 738 mmHg 73%
    23:00 +10°C° 0 mm 4 mps 739 mmHg 73%

    Tomorrow, 19 February, Tuesday

    Time Temperature Precipitation Wind Pressure Humidity
    00:00 +9°C° 0 mm 3 mps 739 mmHg 73%
    01:00 +9°C° 0 mm 3 mps 739 mmHg 73%
    02:00 +9°C° 0 mm 3 mps 739 mmHg 72%
    03:00 +9°C° 0 mm 3 mps 739 mmHg 71%
    04:00 +9°C° 0 mm 3 mps 739 mmHg 70%
    05:00 +10°C° 0 mm 4 mps 740 mmHg 66%
    06:00 +10°C° 0 mm 5 mps 740 mmHg 63%
    07:00 +12°C° 0 mm 5 mps 740 mmHg 60%
    08:00 +12°C° 0 mm 5 mps 741 mmHg 57%
    09:00 +13°C° 0 mm 6 mps 741 mmHg 55%
    10:00 +14°C° 0 mm 6 mps 741 mmHg 52%
    11:00 +14°C° 0 mm 6 mps 741 mmHg 50%
    12:00 +15°C° 0 mm 5 mps 742 mmHg 49%
    13:00 +16°C° 0 mm 5 mps 742 mmHg 47%
    14:00 +16°C° 0 mm 5 mps 742 mmHg 46%
    15:00 +16°C° 0 mm 5 mps 742 mmHg 46%
    16:00 +17°C° 0 mm 4 mps 742 mmHg 46%
    17:00 +15°C° 0 mm 4 mps 743 mmHg 50%
    18:00 +14°C° 0 mm 3 mps 743 mmHg 54%
    19:00 +14°C° 0 mm 2 mps 743 mmHg 58%
    20:00 +13°C° 0 mm 2 mps 744 mmHg 65%
    21:00 +12°C° 0 mm 2 mps 744 mmHg 72%
    22:00 +9°C° 0 mm 2 mps 744 mmHg 79%
    23:00 +9°C° 0 mm 2 mps 744 mmHg 81%

    Day after tomorrow, 20 February, Wednesday

    Time Temperature Precipitation Wind Pressure Humidity
    00:00 +9°C° 0 mm 2 mps 744 mmHg 84%
    01:00 +8°C° 0 mm 2 mps 744 mmHg 86%
    02:00 +8°C° 0 mm 2 mps 743 mmHg 86%
    03:00 +8°C° 0 mm 2 mps 743 mmHg 86%
    04:00 +8°C° 0 mm 2 mps 743 mmHg 87%
    05:00 +9°C° 0 mm 3 mps 743 mmHg 81%
    06:00 +10°C° 0 mm 3 mps 742 mmHg 76%
    07:00 +11°C° 0 mm 3 mps 742 mmHg 70%
    08:00 +13°C° 0 mm 4 mps 742 mmHg 68%
    09:00 +14°C° 0 mm 4 mps 742 mmHg 66%
    10:00 +15°C° 0 mm 5 mps 743 mmHg 63%
    11:00 +15°C° 0.1 mm 4 mps 743 mmHg 65%
    12:00 +15°C° 0.1 mm 4 mps 743 mmHg 68%
    13:00 +16°C° 0.1 mm 3 mps 743 mmHg 70%
    14:00 +15°C° 0.2 mm 4 mps 743 mmHg 68%
    15:00 +15°C° 0.2 mm 4 mps 743 mmHg 65%
    16:00 +14°C° 0.2 mm 5 mps 743 mmHg 63%
    17:00 +13°C° 0.1 mm 4 mps 744 mmHg 65%
    18:00 +13°C° 0.1 mm 4 mps 744 mmHg 66%
    19:00 +12°C° 0.1 mm 3 mps 744 mmHg 68%
    20:00 +11°C° 0 mm 3 mps 745 mmHg 71%
    21:00 +10°C° 0 mm 3 mps 745 mmHg 74%
    22:00 +9°C° 0 mm 3 mps 746 mmHg 77%
    23:00 +9°C° 0 mm 3 mps 746 mmHg 78%

    21 February, Thursday

    Time Temperature Precipitation Wind Pressure Humidity
    00:00 +9°C° 0 mm 3 mps 746 mmHg 79%
    01:00 +8°C° 0 mm 3 mps 746 mmHg 81%
    02:00 +8°C° 0 mm 3 mps 746 mmHg 80%
    03:00 +8°C° 0 mm 3 mps 746 mmHg 80%
    04:00 +8°C° 0 mm 3 mps 746 mmHg 80%
    05:00 +9°C° 0 mm 3 mps 747 mmHg 77%
    06:00 +10°C° 0 mm 4 mps 747 mmHg 74%
    07:00 +10°C° 0 mm 4 mps 747 mmHg 72%
    08:00 +11°C° 0 mm 4 mps 748 mmHg 67%
    09:00 +13°C° 0 mm 5 mps 748 mmHg 63%
    10:00 +14°C° 0 mm 5 mps 748 mmHg 58%
    11:00 +15°C° 0 mm 5 mps 748 mmHg 56%
    12:00 +16°C° 0 mm 5 mps 749 mmHg 53%
    13:00 +17°C° 0 mm 5 mps 749 mmHg 51%
    14:00 +16°C° 0 mm 5 mps 749 mmHg 55%
    15:00 +15°C° 0 mm 4 mps 749 mmHg 58%
    16:00 +15°C° 0 mm 4 mps 749 mmHg 62%
    17:00 +14°C° 0 mm 4 mps 750 mmHg 65%
    18:00 +13°C° 0 mm 3 mps 750 mmHg 68%
    19:00 +13°C° 0 mm 3 mps 751 mmHg 71%
    20:00 +13°C° 0 mm 2 mps 751 mmHg 77%
    21:00 +10°C° 0 mm 2 mps 751 mmHg 84%
    22:00 +9°C° 0 mm 2 mps 752 mmHg 90%
    23:00 +9°C° 0 mm 2 mps 752 mmHg 91%

    22 February, Friday

    Time Temperature Precipitation Wind Pressure Humidity
    00:00 +9°C° 0 mm 2 mps 752 mmHg 93%
    01:00 +10°C° 0 mm 1 mps 752 mmHg 94%
    02:00 +9°C° 0 mm 1 mps 752 mmHg 95%
    03:00 +9°C° 0 mm 1 mps 752 mmHg 95%
    04:00 +9°C° 0 mm 1 mps 752 mmHg 96%
    05:00 +9°C° 0 mm 1 mps 753 mmHg 93%
    06:00 +10°C° 0 mm 1 mps 753 mmHg 89%
    07:00 +11°C° 0 mm 1 mps 753 mmHg 86%
    08:00 +14°C° 0 mm 1 mps 753 mmHg 72%
    09:00 +18°C° 0 mm 1 mps 754 mmHg 58%
    10:00 +20°C° 0 mm 1 mps 754 mmHg 44%
    11:00 +22°C° 0 mm 1 mps 753 mmHg 40%
    12:00 +23°C° 0 mm 1 mps 753 mmHg 36%
    13:00 +25°C° 0 mm 2 mps 753 mmHg 33%
    14:00 +24°C° 0 mm 2 mps 753 mmHg 35%
    15:00 +24°C° 0 mm 2 mps 753 mmHg 37%
    16:00 +23°C° 0 mm 2 mps 753 mmHg 39%
    17:00 +20°C° 0 mm 2 mps 753 mmHg 47%
    18:00 +18°C° 0 mm 2 mps 753 mmHg 56%
    19:00 +16°C° 0 mm 1 mps 754 mmHg 65%
    20:00 +15°C° 0 mm 1 mps 754 mmHg 72%
    21:00 +13°C° 0 mm 1 mps 754 mmHg 78%
    22:00 +12°C° 0 mm 1 mps 755 mmHg 85%
    23:00 +12°C° 0 mm 1 mps 755 mmHg 85%

    23 February, Saturday

    Time Temperature Precipitation Wind Pressure Humidity
    00:00 +12°C° 0 mm 2 mps 755 mmHg 86%
    01:00 +10°C° 0 mm 2 mps 755 mmHg 86%
    02:00 +10°C° 0 mm 2 mps 755 mmHg 88%
    03:00 +10°C° 0 mm 2 mps 755 mmHg 91%
    04:00 +9°C° 0 mm 2 mps 755 mmHg 93%
    05:00 +10°C° 0 mm 3 mps 755 mmHg 90%
    06:00 +11°C° 0 mm 3 mps 756 mmHg 86%
    07:00 +12°C° 0 mm 3 mps 756 mmHg 83%
    08:00 +13°C° 0 mm 4 mps 757 mmHg 74%
    09:00 +14°C° 0 mm 4 mps 757 mmHg 65%
    10:00 +15°C° 0 mm 4 mps 757 mmHg 57%
    11:00 +17°C° 0 mm 4 mps 757 mmHg 51%
    12:00 +18°C° 0 mm 4 mps 757 mmHg 46%
    13:00 +19°C° 0 mm 4 mps 757 mmHg 41%
    14:00 +19°C° 0 mm 4 mps 757 mmHg 43%
    15:00 +18°C° 0 mm 4 mps 757 mmHg 44%
    16:00 +18°C° 0 mm 4 mps 757 mmHg 46%
    17:00 +15°C° 0 mm 4 mps 757 mmHg 54%
    18:00 +13°C° 0 mm 3 mps 758 mmHg 61%
    19:00 +11°C° 0 mm 3 mps 758 mmHg 68%
    20:00 +10°C° 0 mm 2 mps 758 mmHg 74%
    21:00 +10°C° 0 mm 1 mps 759 mmHg 80%
    22:00 +8°C° 0 mm 1 mps 759 mmHg 87%
    23:00 +8°C° 0 mm 1 mps 759 mmHg 88%
    Show more